Location: Fuller Park
(33.8686°N, 117.9781°W)
Time: 09:53:25
(UTC+00:00)

Cosmos 773 Rocket - Pass Details

Date: 03 August 2024
Orbit: 742 x 775 km, 74.1° (Epoch: 10 September)

Event Time Altitude Azimuth Distance (km) Brightness Sun altitude
Exits shadow 12:31:35 - 215° (SW) 2,686 6.3 -7.3°
Reaches altitude 10° 12:32:44 10° 219° (SW) 2,255 5.9 -7.1°
Maximum altitude 12:37:36 44° 291° (WNW) 1,033 4.4 -6.2°
Drops below altitude 10° 12:42:32 10° 3° (N) 2,286 6.9 -5.2°
Sets 12:45:02 0° 10° (N) 3,220 7.8 -4.8°
